Location: ??????
(41.3794°N, 22.5014°E)
Time: 22:26:52
(UTC+00:00)

SKYMED 2 - Pass Details

Date: 30 November 2020
Orbit: 621 x 623 km, 97.9° (Epoch: 19 January)

Event Time Altitude Azimuth Distance (km) Brightness Sun altitude
Exits shadow 16:15:34 - 23° (NNE) 2,113 5.9 -13.6°
Reaches altitude 10° 16:15:51 10° 24° (NNE) 2,002 5.8 -13.7°
Maximum altitude 16:20:04 49° 99° (E) 811 3.8 -14.4°
Drops below altitude 10° 16:24:15 10° 175° (S) 1,986 6.3 -15.2°
Sets 16:26:29 0° 181° (S) 2,887 7.2 -15.6°
